#timestamp,LO_Frequency,Hit,StdDev 
1581005115.6,286047002.6,P
1581005135.4,286047002.2,P
1581005155.2,286047002.8,P
1581005175.1,286047000.6,N
1581005176.0,286047000.6,N
1581005195.8,286047000.4,N
1581005215.7,286047000.6,N
1581005235.5,286046999.8,N
1581005255.3,286047000.2,N
1581005275.2,286046999.7,N
1581005295.9,286046999.8,N
1581005315.7,286047002.6,N
1581005335.6,286047001.6,N
1581005355.4,286047001.9,N
1581005375.2,286047001.7,N
1581005395.1,286047003.0,N
1581005396.0,286047003.0,N
1581005415.8,286047003.4,N
1581005435.7,286047005.3,Y
1581005455.5,286047004.2,P
1581005475.3,286047003.8,N
1581005495.2,286047001.5,N
1581005515.0,286047004.3,Y
1581005515.9,286047004.3,P
1581005535.8,286046999.8,N
1581005555.6,286047000.6,N
1581005575.4,286047000.7,N
1581005595.3,286046998.8,N
1581005615.1,286046998.1,N
1581005635.8,286046999.3,N
1581005655.7,286046997.2,N
1581005675.5,286046996.5,N
1581005695.4,286046997.3,N
1581005715.2,286046994.9,N
1581005735.0,286046995.0,N
1581005735.9,286046995.0,N
1581005755.8,286046997.6,N
1581005775.6,286046994.9,N
1581005795.4,286046995.1,N
1581005815.3,286046996.2,N
1581005835.1,286046995.5,N
1581005855.8,286046995.7,N
1581005875.7,286046995.8,N
1581005895.5,286046995.8,N
1581005915.4,286046996.4,N
1581005935.2,286046996.0,N
1581005955.0,286046995.9,N
1581005955.9,286046995.9,N
1581005975.8,286046995.7,N
1581005995.6,286046993.4,N
1581006015.4,286046993.9,N
1581006035.3,286046993.4,N
1581006055.1,286046994.0,N
1581006075.9,286046993.8,N
1581006095.7,286046993.6,Y
1581006115.5,286046999.4,P
1581006135.4,286046999.4,N
1581006155.2,286046998.8,N
1581006175.0,286046999.1,N
1581006175.9,286046999.1,N
1581006195.8,286046996.5,Y
1581006215.6,286046998.8,P
1581006235.5,286046998.5,P
1581006255.3,286046998.7,P
1581006275.1,286046998.6,Y
1581006295.9,286047002.3,P
1581006315.7,286047002.5,N
1581006335.6,286047001.0,N
1581006355.4,286046998.5,N
1581006375.2,286046998.1,N
1581006395.1,286047000.9,N
1581006396.0,286047000.9,N
1581006415.8,286047000.7,N
1581006435.6,286047001.1,N
1581006455.5,286046998.1,N
1581006475.3,286046998.1,N
1581006495.2,286046998.7,N
1581006515.9,286046998.2,N
1581006535.7,286046998.6,N
1581006555.6,286046999.3,N
1581006575.4,286046998.6,N
1581006595.2,286046998.1,N
1581006615.1,286047000.8,N
1581006616.0,286047000.8,N
1581006635.8,286046998.1,N
1581006655.7,286047000.8,N
1581006675.5,286046998.8,N
1581006695.3,286046998.5,N
1581006715.2,286046998.5,N
1581006735.0,286046998.4,N
1581006735.9,286046998.4,N
1581006755.7,286047001.2,N
1581006775.6,286047000.2,N
1581006795.4,286047003.7,N
1581006815.3,286047005.4,Y
1581006835.1,286047004.6,P
1581006855.8,286047005.0,N
1581006875.7,286047004.6,N
1581006895.5,286047007.0,Y
1581006915.4,286047002.1,P
1581006935.2,286047001.4,N
1581006955.0,286047004.1,P
1581006955.9,286047004.1,Y
1581006975.8,286047002.8,P
1581006995.6,286047001.0,P
1581007015.4,286046999.3,N
1581007035.3,286046997.0,N
1581007055.1,286046996.7,N
1581007075.9,286046995.0,N
1581007095.7,286046995.6,N
1581007115.5,286046995.3,N
1581007135.4,286046993.7,N
1581007155.2,286046995.6,N
1581007175.1,286046996.0,N
1581007176.0,286046996.0,N
1581007195.8,286046995.2,N
1581007215.6,286046993.8,N
1581007235.5,286046993.8,N
1581007255.3,286046993.3,N
1581007275.1,286046996.3,N
1581007295.9,286046994.2,N
1581007315.7,286046993.6,N
1581007335.6,286046996.2,N
1581007355.4,286046998.0,N
1581007375.2,286046997.2,N
1581007395.1,286046996.5,N
1581007396.0,286046996.5,N
1581007415.8,286046999.3,N
1581007435.7,286046999.1,N
1581007455.5,286046999.5,N
1581007475.3,286046997.1,N
1581007495.2,286046997.2,N
1581007515.0,286046997.4,N
1581007515.9,286046997.4,N
1581007535.8,286046995.7,N
1581007555.6,286046997.9,N
1581007575.4,286046995.6,N
1581007595.3,286046995.3,N
1581007615.1,286046996.3,N
1581007635.8,286046995.4,N
1581007655.7,286046995.1,N
1581007675.5,286046998.0,N
1581007695.4,286046995.8,N
1581007715.2,286046993.8,Y
1581007735.0,286046998.4,P
1581007735.9,286046998.4,N
1581007755.8,286046998.4,N
1581007775.6,286046996.5,Y
1581007795.5,286047000.4,P
1581007815.3,286046998.5,N
1581007835